Dublin, VA

5:47 AM EDT on July 23, 2017 (GMT -0400)
New River Valley

Weather History for KPSK - April, 2013

Change the Weather History Date:

Friday, April 26, 2013

  Actual Average (KBCB) Record (KBCB)
Temperature  
Mean Temperature 52 °F -  
Max Temperature 66 °F 64 °F 85 °F (2009)
Min Temperature 39 °F 39 °F 25 °F (1972)
Degree Days  
Heating Degree Days 12    
Growing Degree Days 2 (Base 50)    
Moisture  
Dew Point 34 °F    
Average Humidity 48    
Maximum Humidity 75    
Minimum Humidity 24    
Precipitation  
Precipitation 0.00 in - - ()
Sea Level Pressure  
Sea Level Pressure 30.39 in    
Wind  
Wind Speed 1 mph (ESE)    
Max Wind Speed 7 mph    
Max Gust Speed -    
Visibility 10 miles    
Events      
Averages and records for this station are not official NWS values.
T = Trace of Precipitation, MM = Missing Value Source: NWS Daily Summary

Daily Weather History Graph

Daily Weather History Graph

Search for Another Location

Airport or City:

Trip Planner

Search our weather history database for the weather conditions in past years. The results will help you decide how hot, cold, wet, or windy it might be!

Date:

Astronomy

Apr. 26, 2013 Rise Set
Actual Time 6:33 AM EDT 8:07 PM EDT
Civil Twilight 6:06 AM EDT 8:35 PM EDT
Nautical Twilight 5:33 AM EDT 9:08 PM EDT
Astronomical Twilight 4:58 AM EDT 9:43 PM EDT
Moon 9:26 PM EDT (4/26) 7:01 AM EDT (4/26)
Length of Visible Light 14h 29m
Length of Day
13h 33m
Full, 99% of the Moon is Illuminated
Apr 26
Full
May 2
Last Quarter
May 9
New
May 18
First Quarter
May 25
Full

Hourly Weather History & Observations

Time (EDT) Temp. Windchill Dew Point Humidity Pressure Visibility Wind Dir Wind Speed Gust Speed Precip Events Conditions
12:15 AM 46.4 °F - 28.4 °F 50% 30.35 in 10.0 mi Calm Calm - N/A   Clear
12:35 AM 46.4 °F - 30.2 °F 53% 30.36 in 10.0 mi Calm Calm - N/A   Clear
12:55 AM 46.4 °F - 28.4 °F 50% 30.36 in 10.0 mi Calm Calm - N/A   Clear
1:15 AM 46.4 °F - 28.4 °F 50% 30.38 in 10.0 mi Calm Calm - N/A   Clear
1:35 AM 46.4 °F - 28.4 °F 50% 30.38 in 10.0 mi Calm Calm - N/A   Clear
1:55 AM 46.4 °F - 28.4 °F 50% 30.37 in 10.0 mi Calm Calm - N/A   Clear
2:15 AM 46.4 °F - 28.4 °F 50% 30.37 in 10.0 mi Calm Calm - N/A   Clear
2:35 AM 44.6 °F - 28.4 °F 53% 30.37 in 10.0 mi Calm Calm - N/A   Clear
2:55 AM 42.8 °F - 30.2 °F 61% 30.37 in 10.0 mi Calm Calm - N/A   Clear
3:15 AM 44.6 °F 43.1 °F 28.4 °F 53% 30.37 in 10.0 mi SW 3.5 mph - N/A   Clear
3:35 AM 44.6 °F - 28.4 °F 53% 30.37 in 10.0 mi Calm Calm - N/A   Clear
3:55 AM 44.6 °F 42.2 °F 28.4 °F 53% 30.37 in 10.0 mi WNW 4.6 mph - N/A   Clear
4:15 AM 41.0 °F 38.0 °F 30.2 °F 65% 30.37 in 10.0 mi WNW 4.6 mph - N/A   Clear
4:35 AM 42.8 °F 38.6 °F 30.2 °F 61% 30.36 in 10.0 mi NW 6.9 mph - N/A   Clear
4:55 AM 44.6 °F 42.2 °F 30.2 °F 57% 30.37 in 10.0 mi South 4.6 mph - N/A   Clear
5:15 AM 44.6 °F - 30.2 °F 57% 30.37 in 10.0 mi Calm Calm - N/A   Clear
5:35 AM 42.8 °F - 30.2 °F 61% 30.37 in 10.0 mi Calm Calm - N/A   Clear
5:55 AM 41.0 °F - 32.0 °F 70% 30.38 in 10.0 mi Calm Calm - N/A   Clear
6:15 AM 39.2 °F - 32.0 °F 75% 30.38 in 10.0 mi Calm Calm - N/A   Clear
6:35 AM 42.8 °F - 32.0 °F 66% 30.39 in 10.0 mi Calm Calm - N/A   Clear
6:55 AM 39.2 °F - 32.0 °F 75% 30.40 in 10.0 mi Calm Calm - N/A   Clear
7:15 AM 39.2 °F - 32.0 °F 75% 30.41 in 10.0 mi Calm Calm - N/A   Clear
7:35 AM 42.8 °F - 33.8 °F 70% 30.42 in 10.0 mi Calm Calm - N/A   Clear
7:55 AM 44.6 °F - 35.6 °F 71% 30.43 in 10.0 mi Calm Calm - N/A   Clear
8:15 AM 48.2 °F - 35.6 °F 62% 30.44 in 10.0 mi Calm Calm - N/A   Clear
8:35 AM 50.0 °F - 33.8 °F 54% 30.45 in 10.0 mi Calm Calm - N/A   Clear
8:55 AM 50.0 °F - 33.8 °F 54% 30.46 in 10.0 mi North 3.5 mph - N/A   Clear
9:15 AM 51.8 °F - 33.8 °F 50% 30.46 in 10.0 mi Calm Calm - N/A   Clear
9:35 AM 53.6 °F - 35.6 °F 51% 30.46 in 10.0 mi East 3.5 mph - N/A   Clear
9:55 AM 53.6 °F - 35.6 °F 51% 30.46 in 10.0 mi Calm Calm - N/A   Clear
10:15 AM 53.6 °F - 35.6 °F 51% 30.47 in 10.0 mi East 3.5 mph - N/A   Clear
10:35 AM 55.4 °F - 35.6 °F 47% 30.46 in 10.0 mi ESE 5.8 mph - N/A   Clear
10:55 AM 55.4 °F - 35.6 °F 47% 30.45 in 10.0 mi Calm Calm - N/A   Clear
11:15 AM 57.2 °F - 37.4 °F 48% 30.45 in 10.0 mi Calm Calm - N/A   Clear
11:35 AM 57.2 °F - 37.4 °F 48% 30.46 in 10.0 mi ESE 3.5 mph - N/A   Clear
11:55 AM 57.2 °F - 35.6 °F 44% 30.44 in 10.0 mi SSE 3.5 mph - N/A   Clear
12:15 PM 57.2 °F - 35.6 °F 44% 30.43 in 10.0 mi ENE 5.8 mph - N/A   Clear
12:35 PM 59.0 °F - 35.6 °F 42% 30.44 in 10.0 mi Calm Calm - N/A   Clear
12:55 PM 60.8 °F - 33.8 °F 36% 30.44 in 10.0 mi Calm Calm - N/A   Clear
1:15 PM 60.8 °F - 33.8 °F 36% 30.44 in 10.0 mi Calm Calm - N/A   Clear
1:35 PM 60.8 °F - 33.8 °F 36% 30.44 in 10.0 mi Calm Calm - N/A   Clear
1:55 PM 62.6 °F - 33.8 °F 34% 30.42 in 10.0 mi Calm Calm - N/A   Clear
2:15 PM 62.6 °F - 33.8 °F 34% 30.42 in 10.0 mi Calm Calm - N/A   Clear
2:35 PM 62.6 °F - 32.0 °F 32% 30.42 in 10.0 mi Calm Calm - N/A   Clear
2:55 PM 64.4 °F - 30.2 °F 28% 30.41 in 10.0 mi SSE 3.5 mph - N/A   Clear
3:15 PM 66.2 °F - 33.8 °F 30% 30.40 in 10.0 mi ESE 3.5 mph - N/A   Clear
3:35 PM 66.2 °F - 32.0 °F 28% 30.39 in 10.0 mi West 3.5 mph - N/A   Clear
3:55 PM 66.2 °F - 30.2 °F 26% 30.38 in 10.0 mi Calm Calm - N/A   Clear
4:15 PM 66.2 °F - 28.4 °F 24% 30.36 in 10.0 mi Calm Calm - N/A   Clear
4:35 PM 64.4 °F - 28.4 °F 26% 30.35 in 10.0 mi Calm Calm - N/A   Clear
4:55 PM 64.4 °F - 30.2 °F 28% 30.35 in 10.0 mi Calm Calm - N/A   Clear
5:15 PM 64.4 °F - 33.8 °F 32% 30.34 in 10.0 mi ESE 4.6 mph - N/A   Clear
5:35 PM 64.4 °F - 30.2 °F 28% 30.34 in 10.0 mi Calm Calm - N/A   Clear
5:55 PM 64.4 °F - 35.6 °F 34% 30.34 in 10.0 mi ENE 3.5 mph - N/A   Clear
6:15 PM 62.6 °F - 35.6 °F 37% 30.34 in 10.0 mi ENE 3.5 mph - N/A   Clear
6:35 PM 62.6 °F - 35.6 °F 37% 30.35 in 10.0 mi ENE 3.5 mph - N/A   Clear
6:55 PM 62.6 °F - 37.4 °F 39% 30.35 in 10.0 mi Calm Calm - N/A   Clear
7:15 PM 62.6 °F - 37.4 °F 39% 30.36 in 10.0 mi South 3.5 mph - N/A   Clear
7:35 PM 62.6 °F - 35.6 °F 37% 30.37 in 10.0 mi South 3.5 mph - N/A   Clear
7:55 PM 62.6 °F - 35.6 °F 37% 30.37 in 10.0 mi Calm Calm - N/A   Clear
8:15 PM 60.8 °F - 37.4 °F 42% 30.37 in 10.0 mi Calm Calm - N/A   Clear
8:35 PM 60.8 °F - 35.6 °F 39% 30.38 in 10.0 mi Calm Calm - N/A   Clear
8:55 PM 57.2 °F - 37.4 °F 48% 30.38 in 10.0 mi SW 5.8 mph - N/A   Clear
9:15 PM 57.2 °F - 37.4 °F 48% 30.39 in 10.0 mi Calm Calm - N/A   Clear
9:35 PM 55.4 °F - 39.2 °F 54% 30.39 in 10.0 mi Calm Calm - N/A   Clear
9:55 PM 55.4 °F - 37.4 °F 51% 30.39 in 10.0 mi Calm Calm - N/A   Clear
10:15 PM 55.4 °F - 37.4 °F 51% 30.40 in 10.0 mi Calm Calm - N/A   Clear
10:35 PM 53.6 °F - 37.4 °F 54% 30.40 in 10.0 mi Calm Calm - N/A   Clear
10:55 PM 53.6 °F - 39.2 °F 58% 30.39 in 10.0 mi Calm Calm - N/A   Clear
11:15 PM 51.8 °F - 41.0 °F 67% 30.39 in 10.0 mi Calm Calm - N/A   Clear
11:35 PM 51.8 °F - 41.0 °F 67% 30.38 in 10.0 mi Calm Calm - N/A   Clear
11:55 PM 53.6 °F - 41.0 °F 62% 30.39 in 10.0 mi Calm Calm - N/A   Clear